Location: Calvatone
(45.1167°N, 10.4333°E)
Time: 20:37:28
(UTC+00:00)

Cosmos 1980 Rocket - Pass Details

Date: 28 January 2023
Orbit: 828 x 851 km, 71.0° (Epoch: 21 March)

Event Time Altitude Azimuth Distance (km) Brightness Sun altitude
Rises 18:32:33 0° 236° (SW) 3,380 6.3 -23.4°
Reaches altitude 10° 18:35:16 10° 247° (WSW) 2,453 5.5 -23.9°
Maximum altitude 18:40:11 30° 308° (NW) 1,466 3.9 -24.8°
Drops below altitude 10° 18:45:10 10° 9° (N) 2,479 4.5 -25.7°
Enters shadow 18:45:29 - 11° (N) 2,582 4.6 -25.7°
